"read_dt","SO2 (ppb)","flags","PMT voltage (V)","lamp voltage (V)","lamp intensity (Hz)","internal temp (C)","react chamber temp (C)","sample flow (l/min)","pres (mmHg)","SO2 bkg (ppb)","SO2 coefficient"
2014-02-18 00:00:00,6263E-2,5C000490,-0724,1340,7199,027.2,045.3,0.103,773.9,01.15,0.508
2014-02-18 00:01:00,6226E-2,5C000490,-0724,1340,7133,027.2,045.3,0.103,773.9,01.15,0.508
2014-02-18 00:02:00,6231E-2,5C000490,-0724,1341,7166,027.2,045.3,0.103,773.9,01.15,0.508
2014-02-18 00:03:00,6202E-2,5C000490,-0724,1341,7182,027.2,045.3,0.103,773.9,01.15,0.508
2014-02-18 00:04:00,6229E-2,5C000490,-0724,1342,7127,027.1,045.3,0.103,773.9,01.15,0.508
2014-02-18 00:05:00,6172E-2,5C000490,-0724,1343,7095,027.2,045.3,0.103,774.0,01.15,0.508
2014-02-18 00:06:00,6170E-2,5C000490,-0724,1345,7079,027.2,045.3,0.103,774.0,01.15,0.508
2014-02-18 00:07:00,6214E-2,5C000490,-0724,1345,7121,027.2,045.3,0.103,774.0,01.15,0.508
2014-02-18 00:08:00,6191E-2,5C000490,-0724,1344,7067,027.1,045.3,0.103,774.0,01.15,0.508
2014-02-18 00:09:00,6185E-2,5C000490,-0724,1345,7145,027.2,045.3,0.103,774.0,01.15,0.508
2014-02-18 00:10:00,6191E-2,5C000490,-0724,1346,7046,027.1,045.3,0.103,774.0,01.15,0.508
2014-02-18 00:11:00,6210E-2,5C000490,-0724,1348,7090,027.1,045.3,0.103,774.0,01.15,0.508
2014-02-18 00:12:00,6158E-2,5C000490,-0724,1349,6994,027.1,045.3,0.103,774.0,01.15,0.508
2014-02-18 00:13:00,6160E-2,5C000490,-0724,1352,6944,027.1,045.3,0.103,774.0,01.15,0.508
2014-02-18 00:14:00,6197E-2,5C000490,-0724,1353,6923,027.2,045.3,0.103,774.0,01.15,0.508
2014-02-18 00:15:00,6197E-2,5C000490,-0724,1353,7054,027.1,045.3,0.103,774.0,01.15,0.508
2014-02-18 00:16:00,6226E-2,5C000490,-0724,1354,7025,027.1,045.3,0.103,774.0,01.15,0.508
2014-02-18 00:17:00,6141E-2,5C000490,-0724,1354,7023,027.1,045.3,0.103,774.0,01.15,0.508
2014-02-18 00:18:00,6220E-2,5C000490,-0724,1356,6990,027.1,045.3,0.103,774.0,01.15,0.508
2014-02-18 00:19:00,6204E-2,5C000490,-0724,1357,7008,027.1,045.3,0.103,774.0,01.15,0.508
2014-02-18 00:20:00,6255E-2,5C000490,-0724,1357,6957,027.2,045.3,0.103,774.1,01.15,0.508
2014-02-18 00:21:00,6143E-2,5C000490,-0724,1357,6952,027.1,045.3,0.103,774.0,01.15,0.508
2014-02-18 00:22:00,6232E-2,5C000490,-0724,1358,6939,027.1,045.3,0.103,774.0,01.15,0.508
2014-02-18 00:23:00,6192E-2,5C000490,-0724,1356,6983,027.1,045.3,0.103,774.1,01.15,0.508
2014-02-18 00:24:00,6208E-2,5C000490,-0724,1354,6987,027.2,045.3,0.103,774.0,01.15,0.508
2014-02-18 00:25:00,6178E-2,5C000490,-0724,1354,6975,027.1,045.3,0.103,774.0,01.15,0.508
2014-02-18 00:26:00,6199E-2,5C000490,-0724,1356,7076,027.1,045.3,0.103,774.1,01.15,0.508
2014-02-18 00:27:00,6249E-2,5C000490,-0724,1355,6952,027.2,045.3,0.103,774.0,01.15,0.508
2014-02-18 00:28:00,6267E-2,5C000490,-0724,1352,7035,027.2,045.3,0.103,774.0,01.15,0.508
2014-02-18 00:29:00,6265E-2,5C000490,-0724,1353,7043,027.1,045.3,0.103,774.0,01.15,0.508
2014-02-18 00:30:00,6193E-2,5C000490,-0724,1354,7017,027.1,045.3,0.103,774.0,01.15,0.508
2014-02-18 00:31:00,6266E-2,5C000490,-0724,1355,7075,027.1,045.3,0.103,773.9,01.15,0.508
2014-02-18 00:32:00,6222E-2,5C000490,-0724,1356,7015,027.2,045.3,0.103,774.0,01.15,0.508
2014-02-18 00:33:00,6204E-2,5C000490,-0724,1357,7017,027.2,045.3,0.103,774.0,01.15,0.508
2014-02-18 00:34:00,6218E-2,5C000490,-0724,1358,6979,027.1,045.3,0.103,774.0,01.15,0.508
2014-02-18 00:35:00,6223E-2,5C000490,-0724,1358,6946,027.2,045.3,0.103,774.0,01.15,0.508
2014-02-18 00:36:00,6230E-2,5C000490,-0724,1358,6993,027.2,045.3,0.103,774.0,01.15,0.508
2014-02-18 00:37:00,6208E-2,5C000490,-0724,1359,7000,027.2,045.3,0.103,774.0,01.15,0.508
2014-02-18 00:38:00,6221E-2,5C000490,-0724,1360,6938,027.1,045.3,0.103,773.9,01.15,0.508
2014-02-18 00:39:00,6234E-2,5C000490,-0724,1361,6956,027.2,045.3,0.103,773.9,01.15,0.508
2014-02-18 00:40:00,6235E-2,5C000490,-0724,1361,6949,027.1,045.3,0.103,773.9,01.15,0.508
2014-02-18 00:41:00,6173E-2,5C000490,-0724,1361,6944,027.2,045.3,0.103,773.9,01.15,0.508
2014-02-18 00:42:00,6204E-2,5C000490,-0724,1361,6899,027.2,045.3,0.103,773.9,01.15,0.508
2014-02-18 00:43:00,6177E-2,5C000490,-0724,1362,6892,027.2,045.3,0.103,774.0,01.15,0.508
2014-02-18 00:44:00,6212E-2,5C000490,-0724,1362,6930,027.1,045.3,0.103,773.9,01.15,0.508
2014-02-18 00:45:00,6202E-2,5C000490,-0724,1364,6878,027.2,045.3,0.103,773.8,01.15,0.508
2014-02-18 00:46:00,6238E-2,5C000490,-0724,1364,6821,027.1,045.3,0.103,773.9,01.15,0.508
2014-02-18 00:47:00,6213E-2,5C000490,-0724,1365,6873,027.1,045.3,0.103,773.9,01.15,0.508
2014-02-18 00:48:00,6191E-2,5C000490,-0724,1365,6928,027.1,045.3,0.103,773.8,01.15,0.508
2014-02-18 00:49:00,6163E-2,5C000490,-0724,1365,6908,027.1,045.3,0.103,773.9,01.15,0.508
2014-02-18 00:50:00,6171E-2,5C000490,-0724,1366,6868,027.2,045.3,0.103,773.9,01.15,0.508
2014-02-18 00:51:00,6215E-2,5C000490,-0724,1366,6902,027.1,045.3,0.103,773.8,01.15,0.508
2014-02-18 00:52:00,6208E-2,5C000490,-0724,1366,6743,027.1,045.3,0.103,773.8,01.15,0.508
2014-02-18 00:53:00,6224E-2,5C000490,-0724,1362,6982,027.2,045.3,0.103,773.9,01.15,0.508
2014-02-18 00:54:00,6186E-2,5C000490,-0724,1359,6890,027.1,045.3,0.103,773.8,01.15,0.508
2014-02-18 00:55:00,6225E-2,5C000490,-0724,1358,6938,027.2,045.3,0.103,773.9,01.15,0.508
2014-02-18 00:56:00,6189E-2,5C000490,-0724,1359,6927,027.2,045.3,0.103,773.9,01.15,0.508
2014-02-18 00:57:00,6220E-2,5C000490,-0724,1360,7026,027.1,045.3,0.103,773.8,01.15,0.508
2014-02-18 00:58:00,6165E-2,5C000490,-0724,1362,6945,027.2,045.3,0.103,773.8,01.15,0.508
2014-02-18 00:59:00,6162E-2,5C000490,-0724,1363,6870,027.2,045.3,0.103,773.9,01.15,0.508
2014-02-18 01:00:00,6220E-2,5C000490,-0724,1364,6894,027.2,045.3,0.103,773.9,01.15,0.508
2014-02-18 01:01:00,6195E-2,5C000490,-0724,1365,6870,027.2,045.3,0.103,773.8,01.15,0.508
2014-02-18 01:02:00,6185E-2,5C000490,-0724,1366,6844,027.2,045.3,0.103,773.8,01.15,0.508
2014-02-18 01:03:00,6248E-2,5C000490,-0724,1367,6806,027.2,045.3,0.103,773.8,01.15,0.508
2014-02-18 01:04:00,6220E-2,5C000490,-0724,1367,6817,027.2,045.3,0.103,773.9,01.15,0.508
2014-02-18 01:05:00,6158E-2,5C000490,-0724,1368,6764,027.2,045.3,0.103,773.9,01.15,0.508
2014-02-18 01:06:00,6214E-2,5C000490,-0724,1369,6722,027.2,045.3,0.103,773.9,01.15,0.508
2014-02-18 01:07:00,6166E-2,5C000490,-0724,1367,6936,027.2,045.3,0.103,773.9,01.15,0.508
2014-02-18 01:08:00,6226E-2,5C000490,-0724,1366,6771,027.2,045.3,0.103,773.9,01.15,0.508
2014-02-18 01:09:00,6200E-2,5C000490,-0724,1367,6932,027.2,045.3,0.103,774.0,01.15,0.508
2014-02-18 01:10:00,6176E-2,5C000490,-0724,1365,7012,027.2,045.3,0.103,773.9,01.15,0.508
2014-02-18 01:11:00,6195E-2,5C000490,-0724,1358,7060,027.2,045.3,0.103,773.9,01.15,0.508
2014-02-18 01:12:00,6167E-2,5C000490,-0724,1358,6927,027.2,045.3,0.103,774.0,01.15,0.508
2014-02-18 01:13:00,6188E-2,5C000490,-0724,1360,6947,027.2,045.3,0.103,774.0,01.15,0.508
2014-02-18 01:14:00,6175E-2,5C000490,-0724,1361,6857,027.2,045.3,0.103,774.0,01.15,0.508
2014-02-18 01:15:00,6166E-2,5C000490,-0724,1363,6966,027.2,045.3,0.103,774.0,01.15,0.508
2014-02-18 01:16:00,6181E-2,5C000490,-0724,1365,6858,027.2,045.3,0.103,774.1,01.15,0.508
2014-02-18 01:17:00,6201E-2,5C000490,-0724,1365,6839,027.2,045.3,0.103,774.0,01.15,0.508
2014-02-18 01:18:00,6172E-2,5C000490,-0724,1365,6772,027.2,045.3,0.103,774.0,01.15,0.508
2014-02-18 01:19:00,6250E-2,5C000490,-0724,1366,6912,027.2,045.3,0.103,774.1,01.15,0.508
2014-02-18 01:20:00,6181E-2,5C000490,-0724,1366,6832,027.2,045.3,0.103,774.1,01.15,0.508
2014-02-18 01:21:00,6153E-2,5C000490,-0724,1366,6862,027.2,045.3,0.103,774.0,01.15,0.508
2014-02-18 01:22:00,6197E-2,5C000490,-0724,1367,6824,027.2,045.3,0.103,774.0,01.15,0.508
2014-02-18 01:23:00,6151E-2,5C000490,-0724,1367,6781,027.2,045.3,0.103,774.0,01.15,0.508
2014-02-18 01:24:00,6167E-2,5C000490,-0724,1368,6799,027.2,045.3,0.103,774.0,01.15,0.508
2014-02-18 01:25:00,6164E-2,5C000490,-0724,1368,6824,027.2,045.3,0.103,774.0,01.15,0.508
2014-02-18 01:26:00,6161E-2,5C000490,-0724,1369,6829,027.2,045.3,0.103,774.0,01.15,0.508
2014-02-18 01:27:00,6143E-2,5C000490,-0724,1369,6863,027.2,045.3,0.103,774.0,01.15,0.508
2014-02-18 01:28:00,6128E-2,5C000490,-0724,1370,6837,027.2,045.3,0.103,774.0,01.15,0.508
2014-02-18 01:29:00,6156E-2,5C000490,-0724,1370,6779,027.2,045.3,0.103,774.0,01.15,0.508
2014-02-18 01:30:00,6149E-2,5C000490,-0724,1370,6820,027.2,045.3,0.103,774.0,01.15,0.508
2014-02-18 01:31:00,6173E-2,5C000490,-0724,1370,6729,027.2,045.3,0.103,774.0,01.15,0.508
2014-02-18 01:32:00,6109E-2,5C000490,-0724,1370,6730,027.2,045.3,0.103,774.0,01.15,0.508
2014-02-18 01:33:00,6171E-2,5C000490,-0724,1371,6689,027.2,045.3,0.103,774.0,01.15,0.508
2014-02-18 01:34:00,6152E-2,5C000490,-0724,1371,6739,027.2,045.3,0.103,774.1,01.15,0.508
2014-02-18 01:35:00,6207E-2,5C000490,-0724,1371,6725,027.2,045.3,0.103,774.0,01.15,0.508
2014-02-18 01:36:00,6226E-2,5C000490,-0724,1372,6707,027.2,045.3,0.103,774.0,01.15,0.508
2014-02-18 01:37:00,6211E-2,5C000490,-0724,1372,6760,027.2,045.3,0.103,774.0,01.15,0.508
2014-02-18 01:38:00,6144E-2,5C000490,-0724,1372,6692,027.2,045.3,0.103,774.1,01.15,0.508
2014-02-18 01:39:00,6176E-2,5C000490,-0724,1372,6693,027.2,045.3,0.103,774.1,01.15,0.508
2014-02-18 01:40:00,6104E-2,5C000490,-0724,1372,6759,027.2,045.3,0.103,774.0,01.15,0.508
2014-02-18 01:41:00,6154E-2,5C000490,-0724,1371,6751,027.2,045.3,0.103,774.1,01.15,0.508
2014-02-18 01:42:00,6214E-2,5C000490,-0724,1372,6763,027.2,045.3,0.103,774.0,01.15,0.508
2014-02-18 01:43:00,6088E-2,5C000490,-0724,1371,6762,027.2,045.3,0.103,774.0,01.15,0.508
2014-02-18 01:44:00,6131E-2,5C000490,-0724,1371,6734,027.2,045.3,0.103,774.1,01.15,0.508
2014-02-18 01:45:00,6159E-2,5C000490,-0724,1371,6704,027.2,045.3,0.103,774.1,01.15,0.508
2014-02-18 01:46:00,6047E-2,5C000490,-0724,1372,6697,027.2,045.3,0.103,774.1,01.15,0.508
2014-02-18 01:47:00,6068E-2,5C000490,-0724,1372,6801,027.2,045.3,0.103,774.1,01.15,0.508
2014-02-18 01:48:00,6081E-2,5C000490,-0724,1372,6755,027.2,045.3,0.103,774.0,01.15,0.508
2014-02-18 01:49:00,6120E-2,5C000490,-0724,1372,6738,027.2,045.3,0.103,774.0,01.15,0.508
2014-02-18 01:50:00,6099E-2,5C000490,-0724,1373,6665,027.2,045.3,0.103,774.1,01.15,0.508
2014-02-18 01:51:00,6138E-2,5C000490,-0724,1373,6667,027.2,045.3,0.103,774.2,01.15,0.508
2014-02-18 01:52:00,6074E-2,5C000490,-0724,1373,6699,027.2,045.3,0.103,774.1,01.15,0.508
2014-02-18 01:53:00,6116E-2,5C000490,-0724,1373,6708,027.2,045.3,0.103,774.1,01.15,0.508
2014-02-18 01:54:00,6129E-2,5C000490,-0724,1373,6680,027.2,045.3,0.103,774.1,01.15,0.508
2014-02-18 01:55:00,6094E-2,5C000490,-0724,1373,6712,027.2,045.3,0.103,774.2,01.15,0.508
2014-02-18 01:56:00,6117E-2,5C000490,-0724,1373,6626,027.2,045.3,0.103,774.2,01.15,0.508
2014-02-18 01:57:00,6058E-2,5C000490,-0724,1374,6671,027.2,045.3,0.103,774.1,01.15,0.508
2014-02-18 01:58:00,6122E-2,5C000490,-0724,1374,6667,027.2,045.3,0.103,774.2,01.15,0.508
2014-02-18 01:59:00,6108E-2,5C000490,-0724,1374,6619,027.2,045.3,0.103,774.1,01.15,0.508
2014-02-18 02:00:00,6081E-2,5C000490,-0724,1374,6657,027.2,045.3,0.103,774.1,01.15,0.508
2014-02-18 02:01:00,6087E-2,5C000490,-0724,1374,6663,027.2,045.3,0.103,774.1,01.15,0.508
2014-02-18 02:02:00,6140E-2,5C000490,-0724,1374,6522,027.2,045.3,0.103,774.1,01.15,0.508
2014-02-18 02:03:00,6064E-2,5C000490,-0724,1374,6624,027.2,045.3,0.103,774.2,01.15,0.508
2014-02-18 02:04:00,6068E-2,5C000490,-0724,1374,6633,027.2,045.3,0.103,774.2,01.15,0.508
2014-02-18 02:05:00,6087E-2,5C000490,-0724,1374,6663,027.2,045.3,0.103,774.1,01.15,0.508
2014-02-18 02:06:00,6068E-2,5C000490,-0724,1373,6751,027.2,045.3,0.103,774.1,01.15,0.508
2014-02-18 02:07:00,6134E-2,5C000490,-0724,1373,6583,027.2,045.3,0.103,774.2,01.15,0.508
2014-02-18 02:08:00,6061E-2,5C000490,-0724,1374,6594,027.2,045.3,0.103,774.2,01.15,0.508
2014-02-18 02:09:00,6037E-2,5C000490,-0724,1374,6701,027.2,045.3,0.103,774.2,01.15,0.508
2014-02-18 02:10:00,6064E-2,5C000490,-0724,1374,6646,027.2,045.3,0.103,774.2,01.15,0.508
2014-02-18 02:11:00,6115E-2,5C000490,-0724,1374,6591,027.2,045.3,0.103,774.2,01.15,0.508
2014-02-18 02:12:00,6079E-2,5C000490,-0724,1374,6674,027.2,045.3,0.103,774.2,01.15,0.508
2014-02-18 02:13:00,6091E-2,5C000490,-0724,1374,6619,027.2,045.3,0.103,774.2,01.15,0.508
2014-02-18 02:14:00,6080E-2,5C000490,-0724,1374,6625,027.2,045.3,0.103,774.2,01.15,0.508
2014-02-18 02:15:00,6091E-2,5C000490,-0724,1374,6619,027.2,045.3,0.103,774.2,01.15,0.508
2014-02-18 02:16:00,6017E-2,5C000490,-0724,1374,6615,027.2,045.3,0.103,774.2,01.15,0.508
2014-02-18 02:17:00,6068E-2,5C000490,-0724,1374,6625,027.2,045.3,0.103,774.2,01.15,0.508
2014-02-18 02:18:00,5990E-2,5C000490,-0724,1374,6558,027.2,045.3,0.103,774.2,01.15,0.508
2014-02-18 02:19:00,6025E-2,5C000490,-0724,1374,6537,027.2,045.3,0.103,774.2,01.15,0.508
2014-02-18 02:20:00,6001E-2,5C000490,-0724,1375,6601,027.2,045.3,0.103,774.2,01.15,0.508
2014-02-18 02:21:00,6019E-2,5C000490,-0724,1375,6488,027.2,045.3,0.103,774.3,01.15,0.508
2014-02-18 02:22:00,6009E-2,5C000490,-0724,1375,6558,027.2,045.3,0.103,774.3,01.15,0.508
2014-02-18 02:23:00,6012E-2,5C000490,-0724,1375,6581,027.2,045.3,0.103,774.3,01.15,0.508
2014-02-18 02:24:00,6049E-2,5C000490,-0724,1375,6594,027.2,045.3,0.103,774.3,01.15,0.508
2014-02-18 02:25:00,6047E-2,5C000490,-0724,1375,6563,027.2,045.3,0.103,774.3,01.15,0.508
2014-02-18 02:26:00,6007E-2,5C000490,-0724,1375,6451,027.2,045.3,0.103,774.3,01.15,0.508
2014-02-18 02:27:00,6015E-2,5C000490,-0724,1352,7281,027.2,045.3,0.103,774.3,01.15,0.508
2014-02-18 02:28:00,6050E-2,5C000490,-0724,1331,7368,027.2,045.3,0.103,774.3,01.15,0.508
2014-02-18 02:29:00,6121E-2,5C000490,-0724,1328,7280,027.2,045.3,0.103,774.3,01.15,0.508
2014-02-18 02:30:00,6105E-2,5C000490,-0724,1329,7308,027.2,045.3,0.103,774.3,01.15,0.508
2014-02-18 02:31:00,6093E-2,5C000490,-0724,1331,7337,027.2,045.3,0.103,774.3,01.15,0.508
2014-02-18 02:32:00,6104E-2,5C000490,-0724,1333,7237,027.2,045.3,0.103,774.4,01.15,0.508
2014-02-18 02:33:00,6036E-2,5C000490,-0724,1335,7247,027.2,045.3,0.103,774.3,01.15,0.508
2014-02-18 02:34:00,6058E-2,5C000490,-0724,1337,7193,027.2,045.3,0.103,774.3,01.15,0.508
2014-02-18 02:35:00,6091E-2,5C000490,-0724,1339,7168,027.2,045.3,0.103,774.3,01.15,0.508
2014-02-18 02:36:00,6070E-2,5C000490,-0724,1340,7134,027.2,045.3,0.103,774.3,01.15,0.508
2014-02-18 02:37:00,6123E-2,5C000490,-0724,1341,7140,027.2,045.3,0.103,774.3,01.15,0.508
2014-02-18 02:38:00,6105E-2,5C000490,-0724,1342,7172,027.2,045.3,0.103,774.3,01.15,0.508
2014-02-18 02:39:00,6069E-2,5C000490,-0724,1344,7045,027.2,045.3,0.103,774.3,01.15,0.508
2014-02-18 02:40:00,6074E-2,5C000490,-0724,1345,7127,027.2,045.3,0.103,774.3,01.15,0.508
2014-02-18 02:41:00,6040E-2,5C000490,-0724,1347,7099,027.2,045.3,0.103,774.3,01.15,0.508
2014-02-18 02:42:00,6138E-2,5C000490,-0724,1349,7092,027.2,045.3,0.103,774.3,01.15,0.508
2014-02-18 02:43:00,6346E-2,5C000490,-0724,1340,7264,027.2,045.3,0.103,774.3,01.15,0.508
2014-02-18 02:44:00,6396E-2,5C000490,-0724,1339,7202,027.2,045.3,0.103,774.4,01.15,0.508
2014-02-18 02:45:00,6414E-2,5C000490,-0724,1339,7198,027.2,045.3,0.103,774.3,01.15,0.508
2014-02-18 02:46:00,6483E-2,5C000490,-0724,1339,7182,027.2,045.3,0.103,774.4,01.15,0.508
2014-02-18 02:47:00,6466E-2,5C000490,-0724,1341,7028,027.2,045.3,0.103,774.4,01.15,0.508
2014-02-18 02:48:00,6398E-2,5C000490,-0724,1344,7112,027.2,045.3,0.103,774.4,01.15,0.508
2014-02-18 02:49:00,6412E-2,5C000490,-0724,1343,7139,027.2,045.3,0.103,774.4,01.15,0.508
2014-02-18 02:50:00,6380E-2,5C000490,-0724,1345,7147,027.2,045.3,0.103,774.3,01.15,0.508
2014-02-18 02:51:00,6370E-2,5C000490,-0724,1347,7149,027.2,045.3,0.103,774.4,01.15,0.508
2014-02-18 02:52:00,6393E-2,5C000490,-0724,1349,7075,027.2,045.3,0.103,774.4,01.15,0.508
2014-02-18 02:53:00,6373E-2,5C000490,-0724,1351,7069,027.2,045.3,0.103,774.4,01.15,0.508
2014-02-18 02:54:00,6424E-2,5C000490,-0724,1353,7048,027.2,045.3,0.103,774.4,01.15,0.508
2014-02-18 02:55:00,6300E-2,5C000490,-0724,1353,7046,027.2,045.3,0.103,774.4,01.15,0.508
2014-02-18 02:56:00,6440E-2,5C000490,-0724,1353,7042,027.2,045.3,0.103,774.4,01.15,0.508
2014-02-18 02:57:00,6413E-2,5C000490,-0724,1353,6963,027.2,045.3,0.103,774.3,01.15,0.508
2014-02-18 02:58:00,6293E-2,5C000490,-0724,1354,7079,027.2,045.3,0.103,774.4,01.15,0.508
2014-02-18 02:59:00,6356E-2,5C000490,-0724,1355,7083,027.2,045.3,0.103,774.4,01.15,0.508
2014-02-18 03:00:00,6432E-2,5C000490,-0724,1354,6993,027.2,045.3,0.103,774.4,01.15,0.508
2014-02-18 03:01:00,6347E-2,5C000490,-0724,1356,7074,027.2,045.3,0.103,774.4,01.15,0.508
2014-02-18 03:02:00,6338E-2,5C000490,-0724,1355,7009,027.2,045.3,0.103,774.4,01.15,0.508
2014-02-18 03:03:00,6362E-2,5C000490,-0724,1357,6994,027.2,045.3,0.103,774.4,01.15,0.508
2014-02-18 03:04:00,6373E-2,5C000490,-0724,1358,6939,027.2,045.3,0.103,774.4,01.15,0.508
2014-02-18 03:05:00,6372E-2,5C000490,-0724,1359,6993,027.2,045.3,0.103,774.3,01.15,0.508
2014-02-18 03:06:00,6305E-2,5C000490,-0724,1361,6998,027.2,045.3,0.103,774.3,01.15,0.508
2014-02-18 03:07:00,6300E-2,5C000490,-0724,1362,6870,027.2,045.3,0.103,774.4,01.15,0.508
2014-02-18 03:08:00,6379E-2,5C000490,-0724,1363,6903,027.2,045.3,0.103,774.4,01.15,0.508
2014-02-18 03:09:00,6374E-2,5C000490,-0724,1364,6893,027.2,045.3,0.103,774.4,01.15,0.508
2014-02-18 03:10:00,6391E-2,5C000490,-0724,1365,6868,027.2,045.3,0.103,774.4,01.15,0.508
2014-02-18 03:11:00,6348E-2,5C000490,-0724,1366,6792,027.2,045.3,0.103,774.4,01.15,0.508
2014-02-18 03:12:00,6384E-2,5C000490,-0724,1367,6827,027.2,045.3,0.103,774.4,01.15,0.508
2014-02-18 03:13:00,6358E-2,5C000490,-0724,1367,6807,027.2,045.3,0.103,774.4,01.15,0.508
2014-02-18 03:14:00,6338E-2,5C000490,-0724,1369,6749,027.2,045.3,0.103,774.3,01.15,0.508
2014-02-18 03:15:00,6289E-2,5C000490,-0724,1369,6745,027.2,045.3,0.103,774.4,01.15,0.508
2014-02-18 03:16:00,6353E-2,5C000490,-0724,1370,6770,027.2,045.3,0.103,774.4,01.15,0.508
2014-02-18 03:17:00,6254E-2,5C000490,-0724,1369,6908,027.2,045.3,0.103,774.4,01.15,0.508
2014-02-18 03:18:00,6298E-2,5C000490,-0724,1368,6821,027.2,045.3,0.103,774.4,01.15,0.508
2014-02-18 03:19:00,6317E-2,5C000490,-0724,1365,6927,027.2,045.3,0.103,774.3,01.15,0.508
2014-02-18 03:20:00,6443E-2,5C000490,-0724,1361,7004,027.2,045.3,0.103,774.3,01.15,0.508
2014-02-18 03:21:00,6411E-2,5C000490,-0724,1360,6915,027.2,045.3,0.103,774.4,01.15,0.508
2014-02-18 03:22:00,6451E-2,5C000490,-0724,1361,6917,027.2,045.3,0.103,774.4,01.15,0.508
2014-02-18 03:23:00,6417E-2,5C000490,-0724,1359,6855,027.2,045.3,0.103,774.4,01.15,0.508
2014-02-18 03:24:00,6417E-2,5C000490,-0724,1359,6997,027.2,045.3,0.103,774.4,01.15,0.508
2014-02-18 03:25:00,6466E-2,5C000490,-0724,1358,7004,027.2,045.3,0.103,774.4,01.15,0.508
2014-02-18 03:26:00,6445E-2,5C000490,-0724,1359,6990,027.2,045.3,0.103,774.4,01.15,0.508
2014-02-18 03:27:00,6424E-2,5C000490,-0724,1360,6870,027.2,045.3,0.103,774.4,01.15,0.508
2014-02-18 03:28:00,6404E-2,5C000490,-0724,1361,6910,027.2,045.3,0.103,774.4,01.15,0.508
2014-02-18 03:29:00,6400E-2,5C000490,-0724,1362,6935,027.2,045.3,0.103,774.4,01.15,0.508
2014-02-18 03:30:00,6419E-2,5C000490,-0724,1362,6913,027.2,045.3,0.103,774.5,01.15,0.508
2014-02-18 03:31:00,6431E-2,5C000490,-0724,1363,6868,027.2,045.3,0.103,774.4,01.15,0.508
2014-02-18 03:32:00,6403E-2,5C000490,-0724,1364,6849,027.2,045.3,0.103,774.4,01.15,0.508
2014-02-18 03:33:00,6402E-2,5C000490,-0724,1365,6852,027.2,045.3,0.103,774.5,01.15,0.508
2014-02-18 03:34:00,6388E-2,5C000490,-0724,1366,6905,027.2,045.3,0.103,774.5,01.15,0.508
2014-02-18 03:35:00,6413E-2,5C000490,-0724,1365,6922,027.2,045.3,0.103,774.5,01.15,0.508
2014-02-18 03:36:00,6395E-2,5C000490,-0724,1365,6969,027.2,045.3,0.103,774.5,01.15,0.508
2014-02-18 03:37:00,6412E-2,5C000490,-0724,1364,6886,027.2,045.3,0.103,774.4,01.15,0.508
2014-02-18 03:38:00,6420E-2,5C000490,-0724,1365,6785,027.2,045.3,0.103,774.5,01.15,0.508
2014-02-18 03:39:00,6426E-2,5C000490,-0724,1366,6832,027.2,045.3,0.103,774.5,01.15,0.508
2014-02-18 03:40:00,6407E-2,5C000490,-0724,1367,6776,027.2,045.3,0.103,774.5,01.15,0.508
2014-02-18 03:41:00,6443E-2,5C000490,-0724,1368,6728,027.2,045.3,0.103,774.5,01.15,0.508
2014-02-18 03:42:00,6385E-2,5C000490,-0724,1368,6902,027.2,045.3,0.103,774.5,01.15,0.508
2014-02-18 03:43:00,6369E-2,5C000490,-0724,1369,6821,027.2,045.3,0.103,774.5,01.15,0.508
2014-02-18 03:44:00,6331E-2,5C000490,-0724,1369,6857,027.2,045.3,0.103,774.5,01.15,0.508
2014-02-18 03:45:00,6328E-2,5C000490,-0724,1370,6837,027.2,045.3,0.103,774.5,01.15,0.508
2014-02-18 03:46:00,6428E-2,5C000490,-0724,1370,6787,027.2,045.3,0.103,774.5,01.15,0.508
2014-02-18 03:47:00,6420E-2,5C000490,-0724,1371,6701,027.2,045.3,0.103,774.5,01.15,0.508
2014-02-18 03:48:00,6364E-2,5C000490,-0724,1371,6787,027.2,045.3,0.103,774.6,01.15,0.508
2014-02-18 03:49:00,6383E-2,5C000490,-0724,1372,6723,027.2,045.3,0.103,774.5,01.15,0.508
2014-02-18 03:50:00,6344E-2,5C000490,-0724,1372,6734,027.2,045.3,0.103,774.5,01.15,0.508
2014-02-18 03:51:00,6340E-2,5C000490,-0724,1372,6750,027.2,045.3,0.103,774.6,01.15,0.508
2014-02-18 03:52:00,6374E-2,5C000490,-0724,1372,6781,027.2,045.3,0.103,774.6,01.15,0.508
2014-02-18 03:53:00,6413E-2,5C000490,-0724,1372,6626,027.2,045.3,0.103,774.6,01.15,0.508
2014-02-18 03:54:00,6388E-2,5C000490,-0724,1372,6768,027.2,045.3,0.103,774.6,01.15,0.508
2014-02-18 03:55:00,6399E-2,5C000490,-0724,1373,6687,027.2,045.3,0.103,774.6,01.15,0.508
2014-02-18 03:56:00,6372E-2,5C000490,-0724,1373,6738,027.2,045.3,0.103,774.6,01.15,0.508
2014-02-18 03:57:00,6335E-2,5C000490,-0724,1373,6739,027.2,045.3,0.103,774.6,01.15,0.508
2014-02-18 03:58:00,6317E-2,5C000490,-0724,1372,6782,027.2,045.3,0.103,774.7,01.15,0.508
2014-02-18 03:59:00,6296E-2,5C000490,-0724,1373,6691,027.2,045.3,0.103,774.7,01.15,0.508
2014-02-18 04:00:00,6365E-2,5C000490,-0724,1373,6648,027.2,045.3,0.103,774.6,01.15,0.508
2014-02-18 04:01:00,6295E-2,5C000490,-0724,1373,6667,027.2,045.3,0.103,774.6,01.15,0.508
2014-02-18 04:02:00,6309E-2,5C000490,-0724,1373,6682,027.2,045.3,0.103,774.7,01.15,0.508
2014-02-18 04:03:00,6306E-2,5C000490,-0724,1373,6712,027.2,045.3,0.103,774.7,01.15,0.508
2014-02-18 04:04:00,6361E-2,5C000490,-0724,1374,6663,027.2,045.3,0.103,774.7,01.15,0.508
2014-02-18 04:05:00,6343E-2,5C000490,-0724,1373,6587,027.2,045.3,0.103,774.7,01.15,0.508
2014-02-18 04:06:00,6405E-2,5C000490,-0724,1373,6717,027.2,045.3,0.103,774.7,01.15,0.508
2014-02-18 04:07:00,6336E-2,5C000490,-0724,1372,6741,027.2,045.3,0.103,774.7,01.15,0.508
2014-02-18 04:08:00,6333E-2,5C000490,-0724,1373,6742,027.2,045.3,0.103,774.7,01.15,0.508
2014-02-18 04:09:00,6373E-2,5C000490,-0724,1373,6729,027.2,045.3,0.103,774.7,01.15,0.508
2014-02-18 04:10:00,6363E-2,5C000490,-0724,1373,6750,027.2,045.3,0.103,774.7,01.15,0.508
2014-02-18 04:11:00,6397E-2,5C000490,-0724,1373,6697,027.2,045.3,0.103,774.7,01.15,0.508
2014-02-18 04:12:00,6372E-2,5C000490,-0724,1373,6713,027.2,045.3,0.103,774.7,01.15,0.508
2014-02-18 04:13:00,6275E-2,5C000490,-0724,1373,6653,027.2,045.3,0.103,774.7,01.15,0.508
2014-02-18 04:14:00,6383E-2,5C000490,-0724,1374,6706,027.2,045.3,0.103,774.7,01.15,0.508
2014-02-18 04:15:00,6346E-2,5C000490,-0724,1373,6710,027.2,045.3,0.103,774.7,01.15,0.508
2014-02-18 04:16:00,6363E-2,5C000490,-0724,1373,6712,027.2,045.3,0.103,774.7,01.15,0.508
2014-02-18 04:17:00,6344E-2,5C000490,-0724,1374,6624,027.2,045.3,0.103,774.7,01.15,0.508
2014-02-18 04:18:00,6327E-2,5C000490,-0724,1374,6618,027.2,045.3,0.103,774.7,01.15,0.508
2014-02-18 04:19:00,6326E-2,5C000490,-0724,1373,6666,027.2,045.3,0.103,774.7,01.15,0.508
2014-02-18 04:20:00,6380E-2,5C000490,-0724,1373,6739,027.2,045.3,0.103,774.8,01.15,0.508
2014-02-18 04:21:00,6361E-2,5C000490,-0724,1373,6648,027.2,045.3,0.103,774.8,01.15,0.508
2014-02-18 04:22:00,6402E-2,5C000490,-0724,1373,6699,027.2,045.3,0.103,774.7,01.15,0.508
2014-02-18 04:23:00,6349E-2,5C000490,-0724,1374,6658,027.2,045.3,0.103,774.7,01.15,0.508